CSN1937 ZSSS-RJBB

Flight info

Callsign CSN1937
Flight time 1h 40m
Altitude 41100
Route LAM61D LAMEN/N0439F410 A593 SADLI Y590 BEDAR Y591 FUE Y35 IGLEV
Aircraft A332/H-SDE3GHIJ2J3J5M1RVWXY/LB2D1

Departure

Time 2026-05-04 12:05
Airport Shanghai Hongqiao International Airport (ZSSS)

Arrival

Time 2026-05-04 13:45
Airport Kansai International Airport (RJBB)
Time Latitude Longitude Altitude Speed Heading
2026-05-04 11:47 31.19486 121.32795 13 ft 0 kts 180°
2026-05-04 11:55 31.19504 121.32795 14 ft 4 kts 180°
2026-05-04 11:56 31.19526 121.32794 15 ft 4 kts 150°
2026-05-04 11:56 31.19535 121.32775 16 ft 4 kts 82°
2026-05-04 11:56 31.19530 121.32744 14 ft 3 kts 84°
2026-05-04 11:56 31.19530 121.32739 15 ft 0 kts 86°
2026-05-04 11:59 31.19532 121.32744 14 ft 2 kts 69°
2026-05-04 11:59 31.19568 121.32816 15 ft 18 kts 71°
2026-05-04 11:59 31.19591 121.32949 14 ft 14 kts 56°
2026-05-04 11:59 31.19645 121.33003 13 ft 11 kts 57°
2026-05-04 12:00 31.19703 121.33052 13 ft 11 kts
2026-05-04 12:00 31.19783 121.33066 13 ft 11 kts 32°
2026-05-04 12:00 31.19823 121.33152 13 ft 13 kts 69°
2026-05-04 12:00 31.19823 121.33214 14 ft 7 kts 93°
2026-05-04 12:01 31.19822 121.33282 14 ft 9 kts 88°
2026-05-04 12:01 31.19827 121.33376 13 ft 13 kts 82°
2026-05-04 12:02 31.20281 121.33854 13 ft 31 kts 357°
2026-05-04 12:03 31.20499 121.33842 13 ft 32 kts 358°
2026-05-04 12:03 31.20727 121.33832 13 ft 33 kts 358°
2026-05-04 12:03 31.20959 121.33820 13 ft 32 kts 357°
2026-05-04 12:03 31.21107 121.33812 13 ft 21 kts 358°
2026-05-04 12:04 31.21205 121.33757 13 ft 12 kts 310°
2026-05-04 12:04 31.21229 121.33664 14 ft 10 kts 269°
2026-05-04 12:04 31.21208 121.33586 14 ft 10 kts 232°
2026-05-04 12:04 31.21053 121.33549 13 ft 25 kts 187°
2026-05-04 12:05 31.20806 121.33566 15 ft 61 kts 176°
2026-05-04 12:05 31.20131 121.33608 12 ft 133 kts 176°
2026-05-04 12:05 31.19028 121.33665 267 ft 178 kts 177°
2026-05-04 12:05 31.17708 121.33736 918 ft 202 kts 176°
2026-05-04 12:06 31.16209 121.33867 1575 ft 226 kts 175°
2026-05-04 12:06 31.14615 121.33989 2044 ft 232 kts 179°
2026-05-04 12:06 31.12965 121.33989 2589 ft 244 kts 181°
2026-05-04 12:06 31.11222 121.33984 3348 ft 256 kts 181°
2026-05-04 12:07 31.09412 121.34001 4295 ft 262 kts 181°
2026-05-04 12:07 31.07580 121.34033 5198 ft 266 kts 180°
2026-05-04 12:07 31.05690 121.34077 5776 ft 274 kts 180°
2026-05-04 12:07 31.03773 121.34133 5983 ft 277 kts 178°
2026-05-04 12:08 31.01852 121.34368 6007 ft 279 kts 173°
2026-05-04 12:08 30.99928 121.34711 6005 ft 280 kts 172°
2026-05-04 12:08 30.98002 121.35074 6004 ft 281 kts 172°
2026-05-04 12:08 30.96072 121.35438 6002 ft 281 kts 172°
2026-05-04 12:09 30.94190 121.35909 5998 ft 281 kts 161°
2026-05-04 12:09 30.92520 121.37118 5990 ft 282 kts 133°
2026-05-04 12:09 30.91535 121.39062 5991 ft 281 kts 109°
2026-05-04 12:09 30.90996 121.41248 5997 ft 282 kts 103°
2026-05-04 12:10 30.90533 121.43468 6001 ft 283 kts 103°
2026-05-04 12:10 30.90076 121.45669 5999 ft 282 kts 103°
2026-05-04 12:10 30.89607 121.47884 5998 ft 282 kts 103°
2026-05-04 12:10 30.89128 121.50105 5999 ft 283 kts 103°
2026-05-04 12:11 30.88645 121.52327 6002 ft 282 kts 103°
2026-05-04 12:11 30.88161 121.54541 6001 ft 282 kts 103°
2026-05-04 12:11 30.87677 121.56748 6001 ft 281 kts 103°
2026-05-04 12:11 30.87192 121.58954 6002 ft 281 kts 103°
2026-05-04 12:12 30.86707 121.61154 6002 ft 281 kts 103°
2026-05-04 12:12 30.86220 121.63363 6008 ft 281 kts 103°
2026-05-04 12:12 30.85732 121.65572 6007 ft 281 kts 103°
2026-05-04 12:12 30.85245 121.67772 6006 ft 281 kts 103°
2026-05-04 12:13 30.84757 121.69977 6004 ft 281 kts 103°
2026-05-04 12:14 30.81329 121.85416 6026 ft 282 kts 103°
2026-05-04 12:15 30.80834 121.87633 6027 ft 282 kts 103°
2026-05-04 12:15 30.80343 121.89839 6028 ft 283 kts 103°
2026-05-04 12:15 30.80030 121.92083 6069 ft 280 kts 88°
2026-05-04 12:15 30.80370 121.94278 6599 ft 280 kts 72°
2026-05-04 12:16 30.80952 121.96445 7598 ft 282 kts 70°
2026-05-04 12:16 30.81567 121.98619 8740 ft 284 kts 69°
2026-05-04 12:16 30.82191 122.00824 9826 ft 288 kts 69°
2026-05-04 12:16 30.82825 122.03072 10641 ft 301 kts 69°
2026-05-04 12:17 30.83502 122.05477 11113 ft 324 kts 69°
2026-05-04 12:17 30.84215 122.08026 11819 ft 336 kts 70°
2026-05-04 12:17 30.84941 122.10639 12665 ft 343 kts 70°
2026-05-04 12:17 30.85683 122.13314 13579 ft 349 kts 70°
2026-05-04 12:18 30.86480 122.16007 14384 ft 354 kts 65°
2026-05-04 12:18 30.87607 122.18577 15128 ft 360 kts 58°
2026-05-04 12:18 30.88907 122.21112 15860 ft 368 kts 56°
2026-05-04 12:18 30.90252 122.23677 16609 ft 375 kts 56°
2026-05-04 12:19 30.91607 122.26261 17368 ft 381 kts 57°
2026-05-04 12:19 30.92995 122.28922 18091 ft 388 kts 57°
2026-05-04 12:19 30.94405 122.31632 18767 ft 395 kts 57°
2026-05-04 12:19 30.95841 122.34398 19357 ft 403 kts 56°
2026-05-04 12:20 30.97307 122.37224 19938 ft 411 kts 56°
2026-05-04 12:20 30.98736 122.40144 20505 ft 420 kts 62°
2026-05-04 12:20 30.99729 122.43385 21084 ft 430 kts 77°
2026-05-04 12:20 31.00048 122.46879 21639 ft 438 kts 88°
2026-05-04 12:21 31.00073 122.50468 22188 ft 445 kts 91°
2026-05-04 12:21 31.00052 122.54097 22728 ft 453 kts 91°
2026-05-04 12:21 31.00031 122.57799 23264 ft 460 kts 91°
2026-05-04 12:21 31.00017 122.61551 23805 ft 467 kts 91°
2026-05-04 12:22 31.00009 122.65358 24268 ft 472 kts 91°
2026-05-04 12:22 31.00008 122.69207 24768 ft 476 kts 91°
2026-05-04 12:22 31.00010 122.73086 25270 ft 480 kts 91°
2026-05-04 12:22 31.00011 122.76984 25753 ft 484 kts 91°
2026-05-04 12:23 31.00012 122.80942 26226 ft 489 kts 91°
2026-05-04 12:23 31.00011 122.84915 26695 ft 493 kts 91°
2026-05-04 12:23 31.00010 122.88932 27157 ft 497 kts 92°
2026-05-04 12:23 31.00011 122.92990 27486 ft 503 kts 91°
2026-05-04 12:24 31.00284 122.97026 27903 ft 510 kts 81°
2026-05-04 12:24 31.01233 123.01023 28342 ft 513 kts 66°
2026-05-04 12:24 31.02893 123.04697 28787 ft 513 kts 53°
2026-05-04 12:24 31.04929 123.08135 29190 ft 516 kts 50°
2026-05-04 12:25 31.07041 123.11544 29600 ft 521 kts 50°
2026-05-04 12:25 31.09172 123.14981 30087 ft 524 kts 50°
2026-05-04 12:25 31.11302 123.18432 30533 ft 526 kts 50°
2026-05-04 12:25 31.13447 123.21921 30864 ft 531 kts 50°
2026-05-04 12:26 31.15603 123.25438 31232 ft 534 kts 50°
2026-05-04 12:26 31.17039 123.27785 31489 ft 536 kts 50°
2026-05-04 12:26 31.19944 123.32541 32031 ft 539 kts 50°
2026-05-04 12:26 31.21384 123.34903 32377 ft 539 kts 50°
2026-05-04 12:27 31.23557 123.38471 32897 ft 538 kts 50°
2026-05-04 12:27 31.26458 123.43238 33633 ft 536 kts 50°
2026-05-04 12:27 31.27882 123.45579 33948 ft 536 kts 50°
2026-05-04 12:27 31.30043 123.49136 34353 ft 537 kts 50°
2026-05-04 12:28 31.32912 123.53860 34874 ft 537 kts 50°
2026-05-04 12:28 31.34371 123.56253 35136 ft 536 kts 50°
2026-05-04 12:28 31.37250 123.60959 35652 ft 536 kts 50°
2026-05-04 12:28 31.38720 123.63361 35914 ft 536 kts 50°
2026-05-04 12:29 31.40890 123.66911 36333 ft 535 kts 50°
2026-05-04 12:29 31.43050 123.70450 36760 ft 533 kts 49°
2026-05-04 12:29 31.45204 123.73982 37087 ft 535 kts 49°
2026-05-04 12:29 31.47369 123.77534 37423 ft 535 kts 49°
2026-05-04 12:30 31.49528 123.81080 37785 ft 535 kts 49°
2026-05-04 12:30 31.51687 123.84631 38131 ft 535 kts 49°
2026-05-04 12:30 31.53844 123.88181 38493 ft 535 kts 49°
2026-05-04 12:30 31.55972 123.91687 38843 ft 534 kts 49°
2026-05-04 12:31 31.58124 123.95236 39137 ft 534 kts 49°
2026-05-04 12:31 31.60149 123.98907 39324 ft 540 kts 58°
2026-05-04 12:31 31.61649 124.03035 39542 ft 545 kts 70°
2026-05-04 12:31 31.62755 124.07225 39839 ft 545 kts 73°
2026-05-04 12:32 31.63751 124.11514 40155 ft 544 kts 75°
2026-05-04 12:32 31.65588 124.20088 40756 ft 541 kts 75°
2026-05-04 12:32 31.66499 124.24372 41000 ft 540 kts 75°
2026-05-04 12:33 31.67419 124.28649 41192 ft 543 kts 75°
2026-05-04 12:33 31.69321 124.37340 41174 ft 555 kts 75°
2026-05-04 12:34 31.71265 124.46147 41172 ft 558 kts 75°
2026-05-04 12:34 31.73208 124.54966 41172 ft 557 kts 75°
2026-05-04 12:35 31.75144 124.63791 41179 ft 557 kts 75°
2026-05-04 12:35 31.77054 124.72537 41198 ft 554 kts 75°
2026-05-04 12:36 31.78971 124.81340 41174 ft 557 kts 75°
2026-05-04 12:36 31.80890 124.90191 41177 ft 558 kts 75°
2026-05-04 12:37 31.82381 124.99127 41177 ft 556 kts 89°
2026-05-04 12:37 31.82261 125.03563 41171 ft 551 kts 101°
2026-05-04 12:37 31.81741 125.07977 41178 ft 550 kts 103°
2026-05-04 12:38 31.80374 125.16817 41178 ft 550 kts 106°
2026-05-04 12:38 31.78863 125.25651 41153 ft 550 kts 106°
2026-05-04 12:39 31.77366 125.34478 41176 ft 550 kts 106°
2026-05-04 12:39 31.75894 125.43306 41182 ft 550 kts 106°
2026-05-04 12:40 31.74433 125.52106 41181 ft 550 kts 106°
2026-05-04 12:40 31.72970 125.60940 41179 ft 551 kts 104°
2026-05-04 12:40 31.72645 125.65404 41178 ft 556 kts 91°
2026-05-04 12:41 31.73002 125.69874 41179 ft 558 kts 79°
2026-05-04 12:41 31.74689 125.78781 41168 ft 559 kts 75°
2026-05-04 12:42 31.76687 125.87616 41181 ft 560 kts 74°
2026-05-04 12:42 31.78721 125.96524 41173 ft 561 kts 75°
2026-05-04 12:43 31.80676 126.05332 41200 ft 560 kts 75°
2026-05-04 12:43 31.82610 126.14206 41169 ft 559 kts 75°
2026-05-04 12:44 31.84530 126.23067 41176 ft 559 kts 75°
2026-05-04 12:44 31.86448 126.31937 41167 ft 560 kts 76°
2026-05-04 12:45 31.88363 126.40823 41171 ft 560 kts 76°
2026-05-04 12:45 31.90246 126.49575 41167 ft 560 kts 75°
2026-05-04 12:46 31.92194 126.58440 41169 ft 560 kts 75°
2026-05-04 12:46 31.94161 126.67319 41166 ft 561 kts 75°
2026-05-04 12:47 31.96108 126.76157 41149 ft 561 kts 75°
2026-05-04 12:47 31.98070 126.85114 41207 ft 562 kts 75°
2026-05-04 12:48 32.00011 126.94018 41166 ft 560 kts 76°
2026-05-04 12:48 32.01929 127.02848 41166 ft 560 kts 76°
2026-05-04 12:49 32.03981 127.11706 41165 ft 560 kts 67°
2026-05-04 12:49 32.06958 127.20186 41164 ft 559 kts 65°
2026-05-04 12:50 32.10103 127.28569 41164 ft 559 kts 64°
2026-05-04 12:50 32.13286 127.36951 41158 ft 560 kts 64°
2026-05-04 12:51 32.16451 127.45340 41159 ft 560 kts 64°
2026-05-04 12:51 32.19597 127.53738 41168 ft 560 kts 64°
2026-05-04 12:52 32.22738 127.62156 41155 ft 559 kts 64°
2026-05-04 12:52 32.25869 127.70570 41155 ft 559 kts 64°
2026-05-04 12:53 32.28994 127.78984 41150 ft 560 kts 65°
2026-05-04 12:53 32.32101 127.87369 41158 ft 560 kts 65°
2026-05-04 12:54 32.35240 127.95863 41133 ft 560 kts 65°
2026-05-04 12:54 32.38335 128.04259 41155 ft 561 kts 65°
2026-05-04 12:55 32.41451 128.12732 41150 ft 561 kts 65°
2026-05-04 12:55 32.44562 128.21215 41142 ft 561 kts 65°
2026-05-04 12:56 32.47673 128.29718 41148 ft 562 kts 65°
2026-05-04 12:56 32.50774 128.38214 41147 ft 563 kts 65°
2026-05-04 12:57 32.53873 128.46728 41155 ft 562 kts 65°
2026-05-04 12:57 32.56961 128.55232 41151 ft 561 kts 65°
2026-05-04 12:58 32.60036 128.63723 41150 ft 561 kts 65°
2026-05-04 12:58 32.63114 128.72242 41164 ft 562 kts 65°
2026-05-04 12:59 32.66167 128.80704 41152 ft 561 kts 65°
2026-05-04 12:59 32.69049 128.89324 41123 ft 562 kts 69°
2026-05-04 13:00 32.71701 128.98070 41145 ft 563 kts 70°
2026-05-04 13:00 32.74333 129.06818 41150 ft 562 kts 70°
2026-05-04 13:01 32.76986 129.15537 41128 ft 562 kts 70°
2026-05-04 13:01 32.79657 129.24277 41136 ft 562 kts 70°
2026-05-04 13:02 32.82308 129.32960 41149 ft 562 kts 70°
2026-05-04 13:02 32.84969 129.41705 41127 ft 562 kts 70°
2026-05-04 13:03 32.87622 129.50453 41126 ft 563 kts 70°
2026-05-04 13:03 32.90271 129.59218 41101 ft 563 kts 70°
2026-05-04 13:04 32.92920 129.68004 41110 ft 563 kts 70°
2026-05-04 13:04 32.95554 129.76767 41106 ft 563 kts 70°
2026-05-04 13:05 32.98171 129.85499 41096 ft 563 kts 70°
2026-05-04 13:05 33.00799 129.94296 41131 ft 565 kts 70°
2026-05-04 13:06 33.03427 130.03118 41063 ft 564 kts 70°
2026-05-04 13:06 33.06040 130.11915 41109 ft 564 kts 70°
2026-05-04 13:07 33.08651 130.20729 41104 ft 564 kts 70°
2026-05-04 13:07 33.11260 130.29569 41103 ft 564 kts 71°
2026-05-04 13:08 33.13852 130.38377 41111 ft 565 kts 71°
2026-05-04 13:08 33.16453 130.47242 41110 ft 565 kts 71°
2026-05-04 13:09 33.19032 130.56057 41108 ft 566 kts 71°
2026-05-04 13:09 33.21623 130.64938 41109 ft 566 kts 71°
2026-05-04 13:10 33.24219 130.73867 41106 ft 566 kts 71°
2026-05-04 13:10 33.26775 130.82686 41127 ft 565 kts 71°
2026-05-04 13:11 33.29341 130.91559 41091 ft 564 kts 71°
2026-05-04 13:11 33.31899 131.00442 41115 ft 566 kts 71°
2026-05-04 13:12 33.34458 131.09360 41111 ft 567 kts 71°
2026-05-04 13:12 33.37009 131.18274 41107 ft 567 kts 71°
2026-05-04 13:13 33.39559 131.27213 41126 ft 568 kts 71°
2026-05-04 13:13 33.42107 131.36169 41094 ft 568 kts 71°
2026-05-04 13:14 33.44224 131.43634 41103 ft 570 kts 71°
2026-05-04 13:14 33.46761 131.52607 41101 ft 568 kts 71°
2026-05-04 13:15 33.49699 131.63029 41108 ft 568 kts 71°
2026-05-04 13:15 33.51811 131.70555 41128 ft 569 kts 71°
2026-05-04 13:16 33.54327 131.79548 41084 ft 569 kts 71°
2026-05-04 13:16 33.56836 131.88543 41099 ft 570 kts 71°
2026-05-04 13:17 33.59345 131.97560 41128 ft 570 kts 72°
2026-05-04 13:17 33.61836 132.06543 41091 ft 570 kts 72°
2026-05-04 13:18 33.64333 132.15578 41092 ft 571 kts 72°
2026-05-04 13:18 33.66824 132.24617 41095 ft 571 kts 72°
2026-05-04 13:19 33.69313 132.33681 41097 ft 571 kts 72°
2026-05-04 13:19 33.70550 132.38195 40772 ft 569 kts 72°
2026-05-04 13:19 33.71788 132.42719 40151 ft 571 kts 72°
2026-05-04 13:19 33.73028 132.47261 39575 ft 572 kts 72°
2026-05-04 13:20 33.74269 132.51812 39061 ft 573 kts 72°
2026-05-04 13:20 33.75508 132.56364 38533 ft 573 kts 72°
2026-05-04 13:20 33.76745 132.60918 37906 ft 573 kts 73°
2026-05-04 13:20 33.77979 132.65464 37390 ft 570 kts 73°
2026-05-04 13:21 33.79203 132.69978 36874 ft 568 kts 73°
2026-05-04 13:21 33.80422 132.74488 36341 ft 566 kts 73°
2026-05-04 13:21 33.81625 132.78942 35795 ft 565 kts 74°
2026-05-04 13:21 33.82834 132.83427 35246 ft 565 kts 74°
2026-05-04 13:22 33.84047 132.87937 34433 ft 570 kts 74°
2026-05-04 13:22 33.85269 132.92506 33561 ft 575 kts 75°
2026-05-04 13:22 33.86425 132.97115 32741 ft 576 kts 76°
2026-05-04 13:22 33.87520 133.01749 31895 ft 576 kts 77°
2026-05-04 13:23 33.88590 133.06413 31092 ft 576 kts 77°
2026-05-04 13:23 33.89644 133.11047 30544 ft 573 kts 77°
2026-05-04 13:23 33.90682 133.15604 29811 ft 571 kts 77°
2026-05-04 13:23 33.91748 133.20261 29067 ft 568 kts 76°
2026-05-04 13:24 33.92796 133.24813 28588 ft 559 kts 76°
2026-05-04 13:24 33.93819 133.29248 27981 ft 553 kts 75°
2026-05-04 13:24 33.94839 133.33665 27520 ft 544 kts 75°
2026-05-04 13:25 33.96825 133.42302 26060 ft 522 kts 75°
2026-05-04 13:25 33.97794 133.46521 25275 ft 509 kts 74°
2026-05-04 13:25 33.98708 133.50512 24630 ft 494 kts 74°
2026-05-04 13:25 33.99604 133.54431 24049 ft 476 kts 73°
2026-05-04 13:26 34.00466 133.58207 23459 ft 458 kts 73°
2026-05-04 13:26 34.01293 133.61839 22867 ft 441 kts 73°
2026-05-04 13:26 34.02092 133.65351 22335 ft 427 kts 73°
2026-05-04 13:26 34.02876 133.68797 21847 ft 427 kts 73°
2026-05-04 13:27 34.03662 133.72249 21328 ft 425 kts 73°
2026-05-04 13:27 34.04441 133.75672 20799 ft 422 kts 73°
2026-05-04 13:27 34.05175 133.79053 20297 ft 421 kts 78°
2026-05-04 13:27 34.05567 133.82546 19769 ft 421 kts 83°
2026-05-04 13:28 34.05860 133.86055 19261 ft 419 kts 86°
2026-05-04 13:28 34.06119 133.89557 18754 ft 419 kts 86°
2026-05-04 13:28 34.06369 133.93068 18208 ft 420 kts 86°
2026-05-04 13:28 34.06611 133.96560 17636 ft 416 kts 86°
2026-05-04 13:29 34.06848 134.00026 17127 ft 412 kts 85°
2026-05-04 13:29 34.07083 134.03451 16600 ft 408 kts 85°
2026-05-04 13:29 34.07308 134.06847 16102 ft 404 kts 85°
2026-05-04 13:29 34.07533 134.10196 15583 ft 399 kts 85°
2026-05-04 13:30 34.07757 134.13520 15079 ft 396 kts 85°
2026-05-04 13:30 34.07976 134.16814 14574 ft 392 kts 84°
2026-05-04 13:30 34.08193 134.20091 14083 ft 389 kts 84°
2026-05-04 13:30 34.08498 134.23309 13537 ft 385 kts 80°
2026-05-04 13:31 34.08914 134.26473 13039 ft 380 kts 79°
2026-05-04 13:31 34.09345 134.29612 12520 ft 376 kts 78°
2026-05-04 13:31 34.09768 134.32703 12036 ft 372 kts 78°
2026-05-04 13:31 34.10185 134.35767 11568 ft 367 kts 77°
2026-05-04 13:32 34.10593 134.38788 11063 ft 363 kts 77°
2026-05-04 13:32 34.10995 134.41773 10592 ft 358 kts 77°
2026-05-04 13:32 34.11390 134.44721 10249 ft 350 kts 77°
2026-05-04 13:32 34.11762 134.47516 10146 ft 334 kts 77°
2026-05-04 13:33 34.12121 134.50220 10026 ft 320 kts 77°
2026-05-04 13:33 34.12470 134.52845 9662 ft 316 kts 76°
2026-05-04 13:33 34.12820 134.55457 9275 ft 313 kts 76°
2026-05-04 13:33 34.13162 134.58034 8924 ft 308 kts 76°
2026-05-04 13:34 34.13499 134.60571 8595 ft 305 kts 76°
2026-05-04 13:34 34.13833 134.63090 8246 ft 302 kts 76°
2026-05-04 13:34 34.14161 134.65570 7915 ft 299 kts 76°
2026-05-04 13:34 34.14486 134.68034 7580 ft 295 kts 75°
2026-05-04 13:35 34.14810 134.70467 7238 ft 292 kts 73°
2026-05-04 13:35 34.16246 134.74836 6639 ft 274 kts 54°
2026-05-04 13:35 34.17145 134.76813 6477 ft 263 kts 53°
2026-05-04 13:36 34.18016 134.78715 6371 ft 252 kts 53°
2026-05-04 13:36 34.18847 134.80535 6219 ft 243 kts 53°
2026-05-04 13:36 34.19647 134.82290 6109 ft 234 kts 53°
2026-05-04 13:36 34.20417 134.83986 5988 ft 227 kts 52°
2026-05-04 13:37 34.21171 134.85642 5808 ft 222 kts 52°
2026-05-04 13:37 34.21901 134.87254 5691 ft 215 kts 52°
2026-05-04 13:37 34.22610 134.88820 5514 ft 211 kts 52°
2026-05-04 13:37 34.23076 134.89847 5400 ft 209 kts 52°
2026-05-04 13:38 34.24003 134.91909 5102 ft 211 kts 59°
2026-05-04 13:38 34.24495 134.93597 4819 ft 208 kts 48°
2026-05-04 13:38 34.25330 134.94996 4557 ft 206 kts 47°
2026-05-04 13:38 34.26153 134.96441 4257 ft 208 kts 45°
2026-05-04 13:39 34.27078 134.97704 4155 ft 197 kts 39°
2026-05-04 13:39 34.27987 134.98872 4097 ft 184 kts 39°
2026-05-04 13:39 34.28865 134.99921 4036 ft 171 kts 38°
2026-05-04 13:39 34.29640 135.00950 4015 ft 159 kts 43°
2026-05-04 13:40 34.30318 135.01947 3966 ft 150 kts 44°
2026-05-04 13:40 34.30969 135.02910 3796 ft 145 kts 44°
2026-05-04 13:40 34.31579 135.03816 3593 ft 137 kts 45°
2026-05-04 13:40 34.32181 135.04711 3381 ft 135 kts 45°
2026-05-04 13:41 34.32775 135.05593 3184 ft 135 kts 45°
2026-05-04 13:41 34.33369 135.06478 2982 ft 135 kts 46°
2026-05-04 13:41 34.33946 135.07339 2805 ft 131 kts 46°
2026-05-04 13:42 34.35177 135.09166 2497 ft 157 kts 47°
2026-05-04 13:42 34.35851 135.10177 2220 ft 148 kts 46°
2026-05-04 13:42 34.36472 135.11106 2016 ft 136 kts 46°
2026-05-04 13:42 34.37059 135.11980 1845 ft 133 kts 45°
2026-05-04 13:43 34.37643 135.12848 1663 ft 133 kts 46°
2026-05-04 13:43 34.38223 135.13713 1472 ft 132 kts 46°
2026-05-04 13:43 34.38804 135.14581 1290 ft 132 kts 47°
2026-05-04 13:43 34.39375 135.15450 1110 ft 132 kts 46°
2026-05-04 13:44 34.39945 135.16323 934 ft 132 kts 46°
2026-05-04 13:44 34.40530 135.17172 793 ft 131 kts 45°
2026-05-04 13:44 34.41128 135.18017 588 ft 132 kts 46°
2026-05-04 13:44 34.41686 135.18900 401 ft 131 kts 46°
2026-05-04 13:45 34.42257 135.19751 223 ft 129 kts 44°
2026-05-04 13:45 34.42824 135.20589 90 ft 128 kts 46°
2026-05-04 13:45 34.43377 135.21393 30 ft 118 kts 49°
2026-05-04 13:45 34.43763 135.21973 27 ft 46 kts 60°
2026-05-04 13:46 34.43832 135.22219 29 ft 25 kts 80°
2026-05-04 13:46 34.43845 135.22313 29 ft 0 kts 81°
2026-05-04 13:47 34.43847 135.22328 29 ft 7 kts 81°
2026-05-04 13:47 34.43858 135.22420 28 ft 15 kts 86°
2026-05-04 13:47 34.43778 135.22551 27 ft 23 kts 142°
2026-05-04 13:47 34.43646 135.22681 27 ft 26 kts 141°
2026-05-04 13:48 34.43497 135.22825 27 ft 29 kts 141°
2026-05-04 13:48 34.43335 135.22984 27 ft 31 kts 140°
2026-05-04 13:48 34.43162 135.23156 27 ft 33 kts 141°
2026-05-04 13:48 34.42997 135.23320 27 ft 26 kts 131°
2026-05-04 13:49 34.43005 135.23440 27 ft 15 kts 64°
2026-05-04 13:49 34.43032 135.23573 27 ft 17 kts 72°
2026-05-04 13:49 34.43069 135.23648 27 ft 14 kts 54°
2026-05-04 13:49 34.43080 135.23678 27 ft 1 kts 91°
2026-05-04 13:50 34.43075 135.23687 27 ft 2 kts 121°
2026-05-04 13:50 34.43057 135.23710 27 ft 5 kts 133°
2026-05-04 13:50 34.43039 135.23731 27 ft 2 kts 139°
2026-05-04 13:50 34.43032 135.23738 27 ft 2 kts 139°
2026-05-04 13:51 34.43028 135.23743 27 ft 1 kts 140°
2026-05-04 13:51 34.43022 135.23748 27 ft 0 kts 140°